Vertical_Velocity
-0 0 -1 -0 -0 -2 -1 -0 -2 0 -1 6 0 1 4 11 1 1 1 2 3 3 -1 1 -1 0 -1 -0 1 1 -0 -1 -2
4 7 2 -2 -1 -0 -4 -5 -1 -0 -1 3 3 3 -0 1 9 2 0 1 -0 2 1 -4 2 -1 -1 -1 0 -0 -1 -2 1
1 2 -5 -2 3 4 0 -1 8 1 -1 -5 4 5 -3 2 5 1 -1 4 -1 -2 0 -4 1 1 -3 -1 2 0 -1 1 -0
1 -1 4 1 -0 3 -2 -15 -6 -4 -5 3 -4 -1 -0 -3 -0 3 1 0 2 0 4 -4 1 1 -3 1 -1 -3 -1 -1 -0
1 -5 -5 -2 -5 -2 -5 -5 -15 -6 0 5 3 -4 -3 -1 0 -1 -1 -0 1 -0 4 3 -3 -0 3 -3 -1 -1 -1 0 -1
0 -4 -1 3 -1 2 -1 -1 2 0 0 2 0 0 -1 2 -1 -3 4 4 0 4 1 -5 -6 -2 -1 1 1 -0 -1 -0 1
-0 -3 -2 -4 -4 1 -0 0 -0 3 3 2 -2 -5 1 1 -0 -1 3 5 1 3 2 2 3 6 6 8 -3 -1 -1 1 -1
-2 1 -1 0 1 -3 1 1 4 1 4 1 2 -2 -2 -0 -1 -2 -0 -2 2 7 3 2 -4 7 4 5 1 -1 -3 -0 1
-0 -2 -3 1 -0 5 3 1 -1 -1 2 4 2 2 -3 -1 -1 -1 -2 -1 -0 1 4 5 6 2 -1 -2 11 -1 0 -1 -2
-1 -1 -1 -0 1 -2 -1 -2 -1 0 -1 3 1 1 1 0 -2 1 -1 -3 -2 -1 0 1 2 2 0 -0 -1 1 1 -1 1
-1 -0 1 0 2 1 -4 2 0 2 3 -2 1 0 0 -1 1 -1 -0 0 -1 -1 -2 0 -1 0 1 1 -3 -3 1 -1 -2
1 1 1 -1 -2 1 1 -0 0 1 2 -2 -4 -2 -2 0 1 1 1 1 -2 -2 0 1 2 0 0 4 3 -1 2 2 1
2 1 -1 -1 -2 2 -1 -0 1 -0 0 -2 -0 -1 -3 1 -1 4 2 3 0 -1 -1 -2 -1 1 1 1 -1 -3 5 0 2
3 2 -0 -3 -1 -0 1 1 -3 -3 -0 -3 4 1 -1 -2 0 0 0 0 3 0 -1 -0 -0 -0 -1 -0 -1 1 0 -1 -2
-0 0 0 -1 -0 -1 0 -1 -4 -2 -0 -0 0 3 -0 -1 -1 2 2 2 1 3 3 1 -1 -2 -2 1 -1 1 0 -0 1
1 0 -1 -1 -1 -0 0 2 -4 -1 -2 -2 -0 2 0 3 1 1 -1 1 2 4 1 5 -0 -3 -1 -0 -1 -0 0 0 1
1 1 -0 -0 1 1 0 -0 -2 -2 -3 -2 -1 7 8 2 0 -2 4 -1 2 1 -1 -1 -2 -2 2 -1 -2 0 -1 1 -1
2 -1 0 -1 -2 -1 -1 -1 -0 -1 -2 -4 -2 0 -0 4 22 -1 2 2 -0 3 0 -0 0 -4 2 3 2 -1 -1 -3 4
-1 1 -0 -1 -0 -2 -1 0 -1 -1 -1 0 -1 -1 -0 -2 7 7 1 -2 -1 -4 2 -0 2 -2 -3 1 -0 -1 -3 3 -0
1 -1 -0 1 -1 -1 -1 -1 -1 -2 -2 -2 -0 -2 -1 -3 -2 -0 -2 3 2 0 -2 -1 2 -0 -2 -3 2 2 -2 -1 0
Height
1567 1569 1569 1569 1567 1568 1568 1568 1568 1568 1568 1568 1569 1569 1568 1570 1570 1570 1570 1570 1571 1571 1571 1573 1573 1573 1573 1574 1574 1574 1574 1575 1576
1569 1571 1571 1570 1570 1570 1571 1571 1571 1571 1571 1571 1572 1572 1571 1572 1572 1571 1572 1573 1573 1573 1574 1575 1576 1575 1576 1576 1576 1576 1576 1577 1578
1570 1571 1572 1571 1572 1572 1573 1574 1574 1574 1574 1574 1574 1573 1573 1573 1574 1573 1575 1576 1576 1575 1575 1577 1579 1578 1578 1579 1578 1579 1579 1579 1580
1570 1572 1573 1573 1573 1574 1575 1576 1576 1577 1578 1578 1576 1576 1575 1575 1575 1574 1576 1578 1577 1577 1577 1578 1580 1580 1580 1580 1581 1581 1581 1581 1581
1570 1572 1574 1574 1575 1575 1576 1578 1579 1580 1581 1580 1579 1577 1577 1577 1577 1576 1577 1579 1579 1579 1581 1579 1580 1582 1582 1582 1582 1583 1583 1583 1583
1572 1573 1575 1576 1576 1577 1577 1579 1580 1581 1583 1581 1580 1579 1579 1579 1578 1578 1579 1579 1579 1580 1580 1580 1581 1583 1583 1583 1583 1584 1584 1585 1585
1572 1573 1575 1577 1578 1579 1578 1580 1581 1582 1582 1581 1580 1580 1580 1579 1580 1580 1580 1580 1580 1581 1581 1582 1583 1584 1584 1583 1583 1585 1586 1586 1586
1572 1573 1576 1578 1579 1579 1580 1581 1581 1583 1583 1582 1581 1581 1581 1581 1581 1581 1582 1582 1583 1582 1582 1580 1581 1584 1584 1585 1585 1586 1587 1587 1588
1572 1574 1575 1577 1578 1580 1580 1580 1582 1583 1583 1583 1582 1582 1582 1583 1583 1583 1584 1584 1584 1584 1584 1584 1585 1585 1585 1586 1587 1587 1587 1588 1588
1571 1572 1574 1576 1577 1578 1579 1580 1582 1583 1583 1583 1583 1583 1583 1583 1584 1584 1585 1585 1586 1586 1586 1585 1585 1586 1586 1587 1587 1588 1588 1588 1588
1570 1572 1574 1576 1577 1578 1579 1581 1582 1582 1583 1582 1582 1583 1583 1584 1585 1585 1586 1586 1586 1586 1587 1587 1586 1587 1586 1586 1586 1587 1587 1588 1589
1571 1571 1573 1575 1578 1579 1580 1581 1581 1582 1582 1582 1583 1583 1583 1584 1585 1585 1585 1585 1586 1587 1587 1587 1587 1587 1587 1586 1587 1587 1588 1588 1587
1571 1571 1572 1574 1576 1577 1579 1580 1581 1581 1582 1583 1584 1583 1583 1582 1583 1584 1585 1585 1585 1587 1587 1587 1587 1587 1586 1585 1585 1587 1587 1587 1587
1571 1571 1571 1573 1575 1576 1577 1578 1579 1581 1582 1583 1584 1583 1582 1583 1583 1583 1584 1585 1586 1586 1586 1587 1586 1585 1586 1586 1586 1587 1587 1587 1586
1572 1571 1572 1573 1575 1575 1577 1577 1577 1579 1580 1581 1582 1583 1584 1583 1583 1583 1584 1585 1586 1586 1586 1585 1582 1584 1586 1585 1585 1585 1585 1585 1584
1573 1573 1572 1573 1574 1575 1576 1575 1575 1578 1578 1579 1582 1584 1585 1584 1583 1583 1584 1585 1585 1585 1585 1584 1580 1583 1584 1584 1583 1583 1583 1582 1581
1572 1572 1572 1573 1573 1574 1574 1574 1574 1575 1576 1578 1580 1584 1586 1584 1585 1585 1586 1585 1585 1585 1584 1582 1580 1582 1583 1582 1581 1581 1581 1580 1579
1571 1572 1572 1573 1573 1573 1572 1573 1573 1574 1576 1577 1579 1581 1581 1584 1585 1584 1585 1585 1585 1584 1584 1582 1581 1580 1582 1582 1579 1579 1578 1578 1577
1569 1570 1572 1572 1572 1573 1573 1573 1572 1573 1574 1576 1577 1577 1579 1580 1583 1582 1582 1584 1584 1583 1583 1580 1580 1580 1579 1579 1578 1577 1576 1576 1574
1568 1570 1570 1571 1571 1572 1572 1572 1572 1572 1573 1574 1575 1576 1577 1578 1580 1579 1581 1583 1583 1581 1580 1579 1578 1578 1577 1576 1576 1574 1573 1572 1571